Back to catalog

STARLINK-31257

AliveCommunicationsVLEO
NORAD 59079·PAYLOAD·🇺🇸 United States

Launched Feb 29, 2024 from Cape Canaveral Space Force Station

Loading…

Next Passes (next 24 hours)

TLE

FreshSource: CelesTrak SupGP

Epoch: Sep 14, 2026, 13:43 UTC

1 59079C 24041F   26257.57201389  .00010399  00000+0  37676-3 0  2578
2 59079  43.0018 323.8591 0001378 274.0394 324.6580 15.27564705    18

Track STARLINK-31257 in real time with AllMySat

Download on the App Store